Terug naar catalogus

SL-8 DEB

ActiefUNKNOWN
NORAD 1634·DEBRIS·🇷🇺 Russia

Gelanceerd Mar 15, 1965 vanaf Baikonur Cosmodrome

Loading…

Volgende Passages (komende 24 uur)

TLE

VersSource: Space-Track

Epoch: Sep 14, 2026, 03:47 UTC

1 01634U 65020ED  26257.15810314 -.00000018  00000-0  13556-3 0  9995
2 01634  56.1551 181.2563 0852725 199.8279 156.7512 12.48579961773599

Volg SL-8 DEB in realtime met AllMySat

Download on the App Store